Regional Weather Roundup
Issued by NWS

Home | Current Version | Previous Version | Text Only | Print | Product List | Glossary Off
Versions: 1 2 3 4 5 6 7 8 9 10 11 12 13 14 15 16 17 18 19 20 21 22 23 24 25 26 27 28 29 30 31 32 33 34 35 36 37 38 39 40 41 42 43 44 45 46 47 48 49 50

073
ASUS45 KABQ 020901
RWRNM
NEW MEXICO REGIONAL WEATHER ROUNDUP
NATIONAL WEATHER SERVICE ALBUQUERQUE NM
300 AM MDT MON MAY 02 2016

NOTE: "FAIR" MEANS FEW OR NO CLOUDS BELOW 12,000 FEET AGL WITH NO
       SIGNIFICANT WEATHER OR OBSTRUCTIONS TO VISION.

      THIS PRODUCT IS RELEASED AS TWO VERSIONS.  ONE VERSION NEAR
      THE TOP OF THE HOUR CONTAINING PRELIMINARY DATA FROM ALBUQUERQUE
      AND OTHER STATIONS.  A FINAL VERSION WITH ADDITIONAL DATA IS
      ISSUED ABOUT 10 MINUTES AFTER THE HOUR.

NMZ501-503-504-510>518-021000-
NORTHWEST PLATEAU/NORTHCENTRAL MOUNTAINS

CITY           SKY/WX    TMP DP  RH WIND       PRES   REMARKS
FARMINGTON     FAIR      40  32  73 SE10      30.21R WCI  33
SANTA FE       CLOUDY    35  30  82 S9        30.25S WCI  28
TAOS           CLOUDY    34  27  75 NW5       30.26S WCI  30
ANGEL FIRE     CLOUDY    26  23  87 NE5       30.25S WCI  20

$$
NMZ402-403-502-505>509-021000-
WESTCENTRAL MOUNTAINS/SOUTHWEST MOUNTAINS

CITY           SKY/WX    TMP DP  RH WIND       PRES   REMARKS
GALLUP         CLOUDY    35  31  85 E6        30.20S WCI  30
GRANTS         CLOUDY    34  33  97 SE9       30.24S WCI  27
SILVER CITY      N/A     41  32  70 S12       30.18R

$$
NMZ407-409-411-412-021000-
SOUTHERN DESERTS

CITY           SKY/WX    TMP DP  RH WIND       PRES   REMARKS
LORDSBURG      FAIR      45  32  61 SE20G26   30.14S
DEMING         FAIR      44  33  65 E13       30.19R
HOLLOMAN AFB   FAIR      45  32  59 SE14      30.18R
ALAMOGORDO     FAIR      45  32  61 S10       30.20S
T OR C         LGT RAIN  43  32  65 N17G23    30.19F

$$
NMZ519>523-021000-
CENTRAL VALLEYS/CENTRAL HIGHLANDS

CITY           SKY/WX    TMP DP  RH WIND       PRES   REMARKS
ALBUQUERQUE    FAIR      39  30  70 E15       30.25S WCI  31
DOUBLE EAGLE   CLOUDY    36  31  84 SE10      30.26R WCI  28
MORIARTY ARPT  CLOUDY    35  30  82 S7        30.29S WCI  29
CLINES CORNERS CLOUDY    30  28  92 E10       30.25S WCI  21
BELEN          CLOUDY    40  37  91 CALM      30.25S
SOCORRO        NOT AVBL

$$
NMZ524>526-539-540-021000-
SOUTHCENTRAL MOUNTAINS

CITY           SKY/WX    TMP DP  RH WIND       PRES   REMARKS
RUIDOSO        NOT AVBL

$$
NMZ527>531-021000-
NORTHEAST HIGHLANDS/NORTHEAST PLAINS

CITY           SKY/WX    TMP DP  RH WIND       PRES   REMARKS
LAS VEGAS      CLOUDY    30  29  96 S3        30.27S
RATON          FAIR      28  23  81 NE5       30.25F WCI  23
CLAYTON        FAIR      34  30  85 NW14      30.25F WCI  25

$$
NMZ532>537-021000-
EASTCENTRAL PLAINS

CITY           SKY/WX    TMP DP  RH WIND       PRES   REMARKS
TUCUMCARI      CLOUDY    35  32  88 W5        30.27F WCI  31
CANNON AFB     CLOUDY    39  38  95 N9        30.26S WCI  33
CLOVIS AIRPORT CLOUDY    39  34  81 N12       30.27S WCI  32

$$
NMZ028-029-538-021000-
SOUTHEAST PLAINS

CITY           SKY/WX    TMP DP  RH WIND       PRES   REMARKS
ROSWELL        CLOUDY    44  35  70 N6        30.28S
ARTESIA        CLOUDY    46  37  71 N9        30.27F
CARLSBAD       CLOUDY    46  36  68 N8        30.25F
HOBBS          FAIR      41  36  81 N12       30.24S


$$




USA.gov is the U.S. government's official web portal to all federal, state and local government web resources and services.